Date,TemperatureHighF,TemperatureAvgF,TemperatureLowF,DewpointHighF,DewpointAvgF,DewpointLowF,HumidityHigh,HumidityAvg,HumidityLow,PressureMaxIn,PressureMinIn,WindSpeedMaxMPH,WindSpeedAvgMPH,GustSpeedMaxMPH,PrecipitationSumIn
2013-1-6,41.0,41.0,41.0,40.5,40.5,40.5,98,98,98,29.80,29.78,0,0,0,0.42
2013-1-13,33.8,33.3,32.0,33.3,32.8,31.5,98,98,98,30.20,30.16,0,0,0,0.00
2013-1-14,37.4,35.2,32.0,36.9,34.7,31.5,98,98,98,30.30,30.18,3,0,0,0.01
2013-1-15,41.0,37.8,33.8,40.5,37.3,33.3,98,98,98,30.44,30.31,3,0,0,0.00
2013-1-16,39.2,36.4,33.8,38.7,35.9,33.3,98,98,98,30.42,30.26,5,2,0,0.00
2013-1-17,41.0,34.5,30.2,40.5,34.0,29.7,98,98,98,30.27,30.02,4,1,0,0.00
2013-1-18,41.0,35.8,33.8,40.5,35.3,33.3,98,98,98,30.08,29.99,6,1,0,0.96
2013-1-19,42.8,35.8,32.0,42.3,35.3,31.5,98,98,98,30.12,30.07,6,1,0,0.00
2013-1-20,44.6,35.0,28.4,44.1,34.5,27.9,98,98,96,30.12,30.00,7,1,0,0.01
2013-1-21,39.2,32.8,28.4,38.7,32.3,27.9,98,98,98,30.00,29.86,4,0,0,0.00
2013-1-22,41.0,35.6,33.8,40.5,35.1,33.3,98,98,98,29.87,29.64,4,1,0,0.00
2013-1-23,42.8,39.5,35.6,42.3,39.0,35.1,98,98,98,29.82,29.54,10,2,0,0.31
2013-1-24,41.0,39.5,35.6,40.5,39.0,35.1,98,98,98,29.90,29.70,7,2,0,0.19
2013-1-25,46.4,40.3,35.6,45.9,39.8,35.1,98,98,98,29.77,29.61,4,0,0,0.01
2013-1-26,44.6,40.7,37.4,44.1,40.2,36.9,98,98,98,29.74,29.55,8,2,0,0.78
2013-1-27,41.0,39.4,35.6,40.5,38.9,35.1,98,98,98,29.74,29.69,8,2,0,0.02
2013-1-28,42.8,40.5,37.4,42.3,40.0,36.9,98,98,98,29.78,29.70,12,4,0,0.04
2013-1-29,46.4,43.7,41.0,45.9,43.2,40.5,98,98,98,30.02,29.78,19,3,0,0.05
2013-1-30,50.0,46.2,42.8,49.5,45.7,42.3,98,98,98,30.09,30.01,9,2,0,0.07
2013-1-31,46.4,44.7,37.4,45.9,44.2,36.9,98,98,98,30.09,30.00,6,1,0,0.13